Flag for U.S.A. Weather past 2 weeks in Minot, North Dakota, U.S.A.

Now
68 °F

Passing clouds.


Feels Like: 68 °F
Forecast: 49 / 71 °F
Wind: 6 mph from Southeast

Location: Minot International Airport

Current Time: May 22, 2015 at 9:13:55 PM

Latest Report: May 22, 2015 at 8:54 PM


Visibility: 10 mi

Pressure: 30.06 "Hg

Humidity: 31%

Dew point: 36 °F

Location of MinotLocation

Historic Weather in Minot — Graph

°F

Minot temperature yesterday

Maximum temperature yesterday: 73 °F (at 3:54 PM)
Minimum temperature yesterday: 41 °F (at 5:54 AM)
Average temperature yesterday: 60 °F

Past Weeks' High & Low Weather Summary

 TemperatureHumidityPressure
High76 °F (May 22, 2:54 PM)97% (May 15, 3:54 AM)30.49 "Hg (May 15, 3:54 AM)
Low31 °F (May 10, 1:54 AM)18% (May 22, 4:54 PM)29.66 "Hg (May 16, 8:01 PM)
Average48 °F62%30.13 "Hg
* Reported May 7 7:54 PM — May 22 7:54 PM, Minot, Weather by CustomWeather, © 2015

Note: Actual official high and low records may vary slightly from our data, if they occured in-between our weather recording intervals... More about our weather records

Advertising

Minot weather history for previous 24 hours

 ConditionsComfort  
Time TempWeatherWind HumidityBarometerVisibility
7:54 PM
Fri, May 22
73 °FSunny.9 mph22%30.06 "Hg10 mi
6:54 PM75 °FSunny.10 mph21%30.06 "Hg10 mi
5:54 PM76 °FPartly sunny.6 mph18%30.07 "Hg10 mi
4:54 PM76 °FSunny.5 mph18%30.08 "Hg10 mi
3:54 PM76 °FScattered clouds.14 mph21%30.09 "Hg10 mi
2:54 PM76 °FSunny.14 mph19%30.09 "Hg10 mi
1:54 PM75 °FSunny.12 mph22%30.10 "Hg10 mi
12:54 PM74 °FSunny.9 mph22%30.12 "Hg10 mi
11:54 AM73 °FSunny.12 mph24%30.12 "Hg10 mi
10:54 AM71 °FSunny.9 mph29%30.13 "Hg10 mi
9:54 AM69 °FSunny.8 mph31%30.13 "Hg10 mi
8:54 AM61 °FSunny.6 mph46%30.14 "Hg10 mi
7:54 AM56 °FSunny.5 mph51%30.14 "Hg10 mi
6:54 AM49 °FClear.No wind61%30.14 "Hg10 mi
5:54 AM48 °FClear.5 mph61%30.13 "Hg10 mi
4:54 AM50 °FClear.3 mph54%30.13 "Hg10 mi
3:54 AM52 °FClear.5 mph50%30.12 "Hg10 mi
2:54 AM53 °FClear.9 mph51%30.13 "Hg10 mi
1:54 AM52 °FClear.3 mph55%30.13 "Hg10 mi
12:54 AM52 °FClear.6 mph57%30.13 "Hg10 mi
11:54 PM
Thu, May 21
56 °FClear.6 mph53%30.13 "Hg10 mi
10:54 PM56 °FClear.5 mph53%30.13 "Hg10 mi
9:54 PM57 °FSunny.5 mph51%30.12 "Hg10 mi
Weather by CustomWeather, © 2015

See weather overviewHow to use our weather pages